sat.trackr.live / text

‹ back to catalog

STARLINK-1286

NORAD 45417 · 2020-019BK

PAYLOAD ACTIVE UNKNOWN

§ Identity

Operator
Country
US
Launch date
2020-03-18
Launch site
AFETR
Launch vehicle
Mass (kg)
RCS (m²)

Purposes: comms

External: N2YO · Heavens-Above · Gunter

§ Orbital elements

Epoch: 2026-05-25T02:53:41.974080Z

Period
92.17 min
Inclination
53.0455°
Eccentricity
0.0001183
Mean motion
15.62384481 rev/d
Perigee alt
380.0 km
Apogee alt
381.6 km
Semi-major
6,758.9 km
B*
5.4685e-4
RAAN
121.5298°
Arg perigee
112.2635°
Mean anomaly
247.8504°
Rev number
34,211

§ Raw data

STARLINK-12861 45417U 20019BK  26145.12062470  .00049122  00000+0  54685-3 0  99912 45417  53.0455 121.5298 0001183 112.2635 247.8504 15.62384481342119

JSON: /api/v1/satellites/45417 · /tle

For live sub-satellite position, see the globe view (requires WebGL).

§ Visibility from observer

Set your observer location to see the next 7 days of passes ≥ 10°. The values pass through the URL so the page stays shareable.

No JS? Fill the form by hand. The geolocation button needs JavaScript.